Content
SEND FEEDBACK

Daily
Averages
Monthly
Summary
United States of America

MALDEN, MISSOURI


Home > North America > United States > Missouri
Elevation: 295 feet     Latitude: 36 36N     Longitude: 089 59W

WEATHER
 
SELECT A DAY
Number of Records: 211,925;   Date Range: 1/1/95 - 11/26/14
 
SHARE

PRINT THIS DATA

[ ← Previous Day ]
WEATHER ALMANAC - JULY 4, 2014
[ Next Day → ]
[ °C ]   °F
Weather ElementAverageHighLow
Temperature71.4 °F81 °F (2:53 pm)60.1 °F (4:53 am)
Dewpoint58.4 °F64 °F (8:53 pm)55 °F (12:53 pm)
Humidity66.4 %90 % (1:53 am)42 % (12:53 pm)
Barometer30.24 in30.29 in (10:53 am)30.21 in (7:53 pm)
Wind Speed3.6 mph8.1 mph (12:53 pm)
Weather ElementAverage
Visibility9.5 mi
Wind DirectionE (93.5 °)

Weather ElementTotal
Precipitation---
Cooling Degree Days5.6 (Base 65)
Growing Degree Days20.6 (Base 50)
Averaged from 23 records on July 4, 2014
WEATHER CONDITIONS BREAKOUT
WIND DIRECTION BREAKOUT
WEATHER BY HOUR - JULY 4, 2014
[ °C ]   °F
Local TimeTemperatureDewpointHumidityBarometerVisibilityWind DirectionWind SpeedGust SpeedPrecipitationEventsConditions
1:53 AM62.1 °F59.0 °F90 %30.22 in7.0 miCalmClear
2:53 AM61.0 °F57.9 °F90 %30.22 in9.0 miCalmClear
3:53 AM61.0 °F57.0 °F87 %30.22 in10.0 miNW (320°)4.6 mphClear
4:53 AM60.1 °F55.9 °F86 %30.23 in9.0 miNNW (330°)4.6 mphClear
5:53 AM60.1 °F55.9 °F86 %30.25 in7.0 miNNW (340°)4.6 mphClear
6:53 AM62.1 °F57.9 °F86 %30.25 in8.0 miCalmClear
7:53 AM66.0 °F59.0 °F78 %30.26 in10.0 miNorth (350°)5.8 mphClear
8:53 AM72.0 °F61.0 °F68 %30.27 in10.0 miNorth (350°)4.6 mphClear
9:53 AM75.9 °F59.0 °F56 %30.28 in10.0 miNE (50°)3.5 mphClear
10:53 AM78.1 °F57.0 °F48 %30.29 in10.0 miNNE (20°)6.9 mphClear
11:53 AM79.0 °F55.9 °F45 %30.28 in10.0 miVariable4.6 mphMostly Cloudy
12:53 PM80.1 °F55.0 °F42 %30.27 in10.0 miNNE (30°)8.1 mphClear
1:53 PM79.0 °F57.0 °F47 %30.25 in10.0 miENE (70°)6.9 mphPartly Cloudy
2:53 PM81.0 °F55.9 °F42 %30.24 in10.0 miNNE (30°)4.6 mphScattered Clouds
3:53 PM79.0 °F57.0 °F47 %30.24 in10.0 miENE (60°)3.5 mphScattered Clouds
4:53 PM79.0 °F57.9 °F48 %30.22 in10.0 miCalmPartly Cloudy
5:53 PM81.0 °F55.9 °F42 %30.22 in10.0 miNorth (10°)3.5 mphClear
6:53 PM79.0 °F59.0 °F50 %30.22 in10.0 miENE (60°)3.5 mphPartly Cloudy
7:53 PM75.0 °F60.1 °F60 %30.21 in10.0 miENE (70°)3.5 mphClear
8:53 PM70.0 °F64.0 °F81 %30.21 in10.0 miNorth (10°)3.5 mphClear
9:53 PM68.0 °F63.0 °F84 %30.22 in10.0 miCalmClear
10:53 PM66.9 °F61.0 °F81 %30.22 in10.0 miNE (40°)3.5 mphClear
11:53 PM66.0 °F61.0 °F84 %30.23 in8.0 miNorth (10°)3.5 mphClear
Hourly data recorded from KPOF, located miles away from Malden, Missouri







STORIES FROM OUR PARTNERS